Location: Newark
(46.7000°N, 60.6000°W)
Time: 19:48:41
(UTC+00:00)

N. Korean satellite - Pass Details

Date: 24 September 2020
Orbit: 452 x 505 km, 97.2° (Epoch: 28 October)

Event Time Altitude Azimuth Distance (km) Brightness Sun altitude
Rises 08:52:44 0° 24° (NNE) 2,602 10.8 -11.0°
Reaches altitude 10° 08:55:10 10° 40° (NE) 1,704 10.1 -10.6°
Maximum altitude 08:58:07 23° 94° (E) 1,097 9.4 -10.1°
Drops below altitude 10° 09:01:01 10° 148° (SSE) 1,669 9.6 -9.6°
Sets 09:03:22 0° 163° (SSE) 2,532 10.3 -9.2°
